Regional Weather Roundup
Issued by NWS Glasgow, MT

Current Version | Previous Version | Text Only | Print | Product List | Glossary On
Versions: 1 2 3 4 5 6 7 8 9 10 11 12 13 14 15 16 17 18 19 20 21 22 23 24 25 26 27 28 29 30 31 32 33 34 35 36 37 38 39 40 41 42 43 44 45 46 47 48 49 50
000
ASUS45 KGGW 240415
RWRGGW
HOURLY WEATHER ROUNDUP FOR NORTHEAST MONTANA
NATIONAL WEATHER SERVICE GLASGOW MONTANA
1000 PM MDT WED JUL 23 2014

NOTE: "FAIR" INDICATES FEW OR NO CLOUDS BELOW 12,000 FEET WITH NO
SIGNIFICANT WEATHER AND/OR OBSTRUCTIONS TO VISISBILITY.

NORTHEAST MONTANA


CITY           SKY/WX    TMP DP  RH WIND       PRES   REMARKS
GLASGOW        PTCLDY    83  64  52 E17G29    29.87S
PLENTYWOOD       N/A     73  64  73 E10G22      N/A
WOLF POINT     MOCLDY    83  62  49 E13G23    29.90F
JORDAN           N/A     83  62  49 E15       29.85F
WINNETT          N/A     78  54  43 CALM        N/A
SIDNEY         PTCLDY    77  63  61 SE9       29.97F
GLENDIVE       CLEAR     77  59  53 SE16G23   29.96F
MALTA            N/A     83  65  54 NE7         N/A
SCOBEY           N/A     75  59  57 E15G22    29.96F

FORT PECK REPORTS


CITY           SKY/WX    TMP DP  RH WIND       PRES   REMARKS
FORT PECK        N/A     80  62  54 E23         N/A
THE PINES        N/A     81  63  54 E7          N/A

SOUTHEAST MONTANA


CITY           SKY/WX    TMP DP  RH WIND       PRES   REMARKS
BILLINGS       PTCLDY    83  60  45 NE8       29.89F
MILES CITY     CLEAR     85  60  42 SE12G22   29.87S
BAKER          CLEAR     72  60  66 SE22G28   30.01R
LIVINGSTON     CLEAR     77  47  34 S7        29.95R

CENTRAL MONTANA


CITY           SKY/WX    TMP DP  RH WIND       PRES   REMARKS
HAVRE          PTCLDY    80  59  48 E13       29.81S
LEWISTOWN      MOCLDY    74  59  59 E5        29.93S
GREAT FALLS    CLOUDY    71  53  52 SW13      29.91F
CUT BANK       PTCLDY    67  53  61 NW8       29.87S
HELENA         MOCLDY    70  56  61 W12       29.91S
BUTTE          PTCLDY    63  52  67 E5        30.04S
BOZEMAN        CLEAR     66  54  65 SE10      29.93S

WESTERN MONTANA


CITY           SKY/WX    TMP DP  RH WIND       PRES   REMARKS
MISSOULA       MOCLDY    76  49  38 SE5       29.89R
KALISPELL      NOT AVBL

NORTH DAKOTA


CITY           SKY/WX    TMP DP  RH WIND       PRES   REMARKS
WILLISTON      MOCLDY    75  63  66 SE12      29.99F
DICKINSON      PTCLDY    68  58  70 SE13      30.04F
MINOT          CLEAR     67  63  87 E10       30.09F
BISMARCK       PTCLDY    71  59  65 SE12      30.10S

SOUTHERN SASKATCHEWAN


CITY           SKY/WX    TMP DP  RH WIND       PRES   REMARKS
REGINA         CLOUDY    70  63  78 SE14G22   30.02F
ESTEVAN        MOCLDY    66  63  88 E15       30.07F
SWIFT CURRENT  MOCLDY    70  64  83 SE20G26   29.92F



USA.gov is the U.S. government's official web portal to all federal, state and local government web resources and services.